Location: Bjelajci
(45.0103°N, 16.1758°E)
Time: 04:25:01
(UTC+00:00)

Cosmos 1697 Rocket - Pass Details

Date: 14 July 2020
Orbit: 834 x 842 km, 71.0° (Epoch: 11 August)

Event Time Altitude Azimuth Distance (km) Brightness Sun altitude
Rises 00:25:53 0° 337° (NNW) 3,397 6.5 -20.6°
Reaches altitude 10° 00:28:25 10° 343° (NNW) 2,458 5.8 -20.5°
Maximum altitude 00:33:54 51° 59° (ENE) 1,044 3.5 -20.1°
Drops below altitude 10° 00:39:21 10° 135° (SE) 2,440 4.9 -19.7°
Enters shadow 00:40:52 - 139° (SE) 3,004 5.3 -19.6°
